Weather History for Altus AFB, OK

Change the Weather History Date:

Saturday, December 15, 2012

  Actual Average Record
Temperature  
Mean Temperature 49 °F -  
Max Temperature 60 °F 51 °F 72 °F (2010)
Min Temperature 38 °F 27 °F 15 °F (2008)
Degree Days  
Heating Degree Days 16    
Moisture  
Dew Point 36 °F    
Average Humidity 63    
Maximum Humidity 85    
Minimum Humidity 38    
Precipitation  
Precipitation 0.00 in - - ()
Sea Level Pressure  
Sea Level Pressure 29.77 in    
Wind  
Wind Speed 13 mph (SSW)    
Max Wind Speed 20 mph    
Max Gust Speed 28 mph    
Visibility 10 miles    
Events      
Averages and records for this station are not official NWS values.
T = Trace of Precipitation, MM = Missing Value Source: NWS Daily Summary

Daily Weather History Graph

Daily Weather History Graph

Search for Another Location

Airport:

Trip Planner

Search our weather history database for the weather conditions in past years. The results will help you decide how hot, cold, wet, or windy it might be!

Date:

Astronomy

Dec. 15, 2012 Rise Set
Actual Time 7:37 AM CST 5:27 PM CST
Civil Twilight 7:09 AM CST 5:55 PM CST
Nautical Twilight 6:37 AM CST 6:27 PM CST
Astronomical Twilight 6:06 AM CST 6:58 PM CST
Moon 9:35 AM CST (12/15) 8:28 PM CST (12/15)
Length of Visible Light 10h 46m
Length of Day
9h 50m
Waxing Crescent, 8% of the Moon is Illuminated
Dec 15
Waxing Crescent
Dec 19
First Quarter
Dec 28
Full
Jan 4
Last Quarter
Jan 11
New

Hourly Weather History & Observations

Time (CST) Temp. Windchill Dew Point Humidity Pressure Visibility Wind Dir Wind Speed Gust Speed Precip Events Conditions
12:55 AM 48.4 °F - 40.3 °F 74% 29.73 in 10.0 mi South 19.6 mph 27.6 mph N/A   Clear
1:55 AM 47.8 °F - 39.2 °F 72% 29.73 in 10.0 mi SSW 17.3 mph - N/A   Clear
2:55 AM 45.3 °F 39.3 °F 37.9 °F 75% 29.73 in 10.0 mi SSW 12.7 mph - N/A   Clear
3:55 AM 43.9 °F 37.2 °F 37.0 °F 77% 29.73 in 10.0 mi South 13.8 mph - N/A   Clear
4:55 AM 42.3 °F 35.5 °F 36.1 °F 79% 29.75 in 10.0 mi SSW 12.7 mph - N/A   Clear
5:55 AM 41.2 °F 34.5 °F 35.6 °F 81% 29.75 in 10.0 mi South 11.5 mph - N/A   Clear
6:55 AM 40.6 °F 34.3 °F 34.7 °F 79% 29.79 in 10.0 mi SSW 10.4 mph - N/A   Clear
7:55 AM 38.8 °F 33.2 °F 33.8 °F 82% 29.81 in 10.0 mi SSW 8.1 mph - N/A   Clear
8:55 AM 40.5 °F 35.1 °F 36.1 °F 85% 29.82 in 10.0 mi SW 8.1 mph - N/A   Clear
9:55 AM 46.2 °F 44.1 °F 38.5 °F 74% 29.83 in 10.0 mi South 4.6 mph - N/A   Clear
10:55 AM 50.9 °F - 35.2 °F 55% 29.84 in 10.0 mi WSW 9.2 mph - N/A   Clear
11:55 AM 54.3 °F - 35.8 °F 50% 29.81 in 10.0 mi SW 10.4 mph - N/A   Clear
12:55 PM 55.9 °F - 34.7 °F 45% 29.78 in 10.0 mi WSW 16.1 mph - N/A   Clear
1:55 PM 58.1 °F - 34.5 °F 41% 29.76 in 10.0 mi SW 15.0 mph - N/A   Clear
2:55 PM 60.4 °F - 34.3 °F 38% 29.73 in 10.0 mi SW 15.0 mph - N/A   Clear
3:55 PM 59.7 °F - 38.8 °F 46% 29.73 in 10.0 mi SSW 11.5 mph - N/A   Clear
4:55 PM 58.1 °F - 36.9 °F 45% 29.74 in 10.0 mi SW 11.5 mph - N/A   Clear
5:55 PM 55.2 °F - 37.6 °F 52% 29.75 in 10.0 mi SSW 13.8 mph - N/A   Clear
6:55 PM 52.9 °F - 37.4 °F 56% 29.77 in 10.0 mi SSW 11.5 mph - N/A   Clear
7:55 PM 49.1 °F - 37.6 °F 64% 29.78 in 10.0 mi SSW 10.4 mph - N/A   Clear
8:55 PM 47.3 °F - 37.8 °F 69% 29.78 in 10.0 mi SSW 9.2 mph - N/A   Clear
9:55 PM 46.9 °F - 36.7 °F 68% 29.77 in 10.0 mi SSW 9.2 mph - N/A   Clear
10:55 PM 51.1 °F - 34.3 °F 53% 29.76 in 10.0 mi SW 12.7 mph - N/A   Clear
11:55 PM 52.9 °F - 34.2 °F 49% 29.76 in 10.0 mi SW 11.5 mph - N/A   Clear